Probability
13 3 0 3 3 3 3 0 3 3 0 0 0 0 0 0 0 0 0 0 0 0 0 0 0 0 0 0 0 0 0 0 0 0 0 0 0 0 0 0 0 0 0
0 6 6 6 13 10 0 3 3 6 0 0 0 0 0 0 0 0 0 0 0 0 0 0 0 0 0 0 0 0 0 0 0 0 0 0 0 0 0 0 0 0 0
0 6 6 6 6 10 10 10 10 10 10 0 0 0 0 0 0 0 0 0 0 0 0 0 0 0 0 0 0 0 0 0 0 0 0 0 0 0 0 0 0 0 0
0 0 6 6 6 10 6 6 10 10 6 3 0 0 0 0 0 0 0 0 0 0 0 0 0 0 0 0 0 0 0 0 0 0 0 0 0 0 0 0 0 0 0
0 3 3 6 6 6 6 6 6 6 3 3 3 0 0 0 0 0 0 0 0 0 0 0 0 0 0 0 0 0 0 0 0 0 0 0 0 0 0 0 0 0 0
3 3 6 6 6 6 6 6 6 6 6 3 3 3 0 0 0 0 0 0 0 0 0 0 0 0 0 0 0 0 0 0 0 0 0 0 0 0 0 0 0 0 0
6 6 6 6 6 6 0 3 3 10 6 10 6 3 0 0 0 0 0 0 0 0 0 0 0 0 0 0 0 0 0 0 0 0 0 0 0 0 0 0 0 0 0
10 6 6 6 6 6 6 6 6 16 10 13 6 3 0 0 0 0 0 0 0 0 0 0 0 0 0 0 0 0 0 0 0 0 0 0 0 0 0 0 0 0 0
6 10 10 10 10 6 6 6 19 13 13 3 6 3 0 0 0 0 0 0 0 0 0 0 0 0 0 0 0 0 0 0 0 0 0 0 0 0 0 0 0 0 0
10 13 10 10 6 3 6 13 10 16 6 3 0 0 0 0 0 0 0 0 0 0 0 0 0 0 0 0 0 0 0 0 0 0 0 0 0 0 0 0 0 0 0
23 16 13 19 13 13 13 13 13 3 3 3 0 0 6 0 0 0 0 0 0 0 0 0 0 0 0 0 0 0 0 0 0 0 0 0 0 0 0 0 0 0 0
32 23 13 19 6 0 10 13 10 10 3 0 0 0 0 0 0 0 0 0 0 0 0 0 0 0 0 0 0 0 0 0 0 0 0 0 0 0 0 0 0 0 0
55 52 39 26 23 13 13 6 6 10 0 0 0 0 0 0 0 0 0 0 0 0 0 0 0 0 0 0 0 0 0 0 0 0 0 0 0 0 0 0 0 0 0
77 68 61 42 23 23 16 3 0 0 0 0 0 0 0 0 0 0 0 0 0 0 0 0 0 0 0 0 0 0 0 0 0 0 0 0 0 0 0 0 0 0 0
65 48 42 19 10 23 19 10 3 6 0 0 0 0 0 0 0 0 0 0 0 0 0 0 0 0 0 0 0 0 0 0 0 0 0 0 0 0 0 0 0 0 0
42 39 19 6 6 6 10 0 0 0 0 0 0 0 0 0 0 0 0 0 0 0 0 0 0 0 0 0 0 0 0 0 0 0 0 0 0 0 0 0 0 0 0
39 23 10 3 6 10 6 0 0 0 0 0 0 0 0 0 0 0 0 0 0 0 0 0 0 0 0 0 0 0 0 0 0 0 0 0 0 0 0 0 0 0 0
3 10 3 6 0 3 6 3 0 0 0 0 0 0 0 0 0 0 0 0 0 0 0 0 0 0 0 0 0 0 0 0 0 0 0 0 0 0 0 0 0 0 0
0 0 10 6 3 3 0 0 0 0 0 0 0 0 0 0 0 0 0 0 0 0 0 0 0 0 0 0 0 0 0 0 0 0 0 0 0 0 0 0 0 0 0
0 0 0 0 0 0 0 0 0 0 0 0 0 0 0 0 0 0 0 0 0 0 0 0 0 0 0 0 0 0 0 0 0 0 0 0 0 0 0 0 0 0 0
0 0 0 0 0 0 0 0 0 0 0 0 0 0 0 0 0 0 0 0 0 0 0 0 0 0 0 0 0 0 0 0 0 0 0 0 0 0 0 0 0 0 0
0 0 0 0 0 0 0 0 0 0 0 0 0 3 0 0 0 0 0 0 0 0 0 0 0 0 0 0 0 0 3 0 0 0 0 0 0 0 0 0 0 0 0
0 0 0 0 0 0 0 0 0 0 0 0 0 0 0 0 0 0 0 0 0 0 0 0 0 0 0 0 0 0 0 0 0 0 0 0 0 0 0 0 0 0 0
0 0 0 0 0 0 0 0 0 0 0 0 0 0 0 0 0 0 0 0 0 0 0 0 0 0 0 0 0 0 0 0 0 3 0 0 0 0 0 0 0 0 0
0 0 0 0 0 0 0 0 0 0 0 0 0 0 0 0 0 0 0 0 0 0 0 0 0 0 0 0 0 0 0 0 0 0 0 0 0 0 0 0 0 0 0
0 0 0 0 0 0 0 0 0 0 0 0 0 0 0 0 0 0 0 0 0 0 0 0 0 0 0 0 0 0 0 0 0 0 0 0 0 0 0 0 0 0 0
Height
5839 5837 5835 5833 5831 5828 5826 5823 5819 5816 5813 5810 5807 5803 5800 5796 5792 5788 5785 5781 5777 5774 5771 5768 5765 5762 5760 5759 5758 5757 5756 5757 5758 5759 5759 5761 5763 5766 5770 5773 5777 5781 5785
5836 5834 5832 5829 5827 5824 5821 5818 5815 5811 5808 5804 5800 5796 5792 5788 5784 5780 5776 5771 5767 5763 5760 5756 5753 5751 5749 5747 5745 5744 5744 5744 5745 5747 5747 5748 5750 5753 5757 5761 5764 5769 5773
5833 5831 5828 5825 5822 5819 5816 5813 5809 5805 5801 5797 5793 5789 5785 5780 5775 5771 5766 5761 5757 5752 5748 5744 5741 5739 5737 5734 5733 5732 5731 5731 5732 5733 5735 5736 5738 5740 5744 5748 5752 5757 5761
5828 5826 5823 5820 5817 5814 5811 5807 5803 5799 5795 5791 5786 5781 5776 5771 5766 5761 5756 5751 5746 5741 5736 5733 5729 5727 5724 5722 5721 5720 5719 5719 5719 5720 5722 5723 5725 5727 5731 5735 5739 5744 5749
5823 5821 5818 5815 5812 5808 5805 5801 5797 5792 5788 5783 5778 5773 5768 5762 5757 5751 5746 5740 5735 5730 5725 5721 5718 5715 5713 5711 5709 5708 5707 5707 5707 5708 5709 5711 5713 5715 5718 5722 5727 5732 5737
5817 5815 5812 5809 5805 5801 5798 5794 5789 5785 5780 5775 5770 5764 5759 5753 5747 5741 5735 5730 5724 5719 5715 5711 5707 5704 5702 5700 5698 5697 5696 5696 5696 5696 5697 5699 5701 5703 5706 5710 5715 5720 5727
5811 5808 5805 5802 5798 5794 5790 5786 5781 5776 5771 5766 5761 5755 5749 5743 5737 5731 5724 5719 5713 5708 5704 5700 5697 5694 5691 5689 5687 5686 5685 5684 5684 5685 5686 5687 5689 5692 5695 5699 5703 5708 5714
5804 5801 5798 5794 5790 5786 5781 5777 5772 5767 5761 5756 5751 5745 5739 5733 5727 5721 5714 5709 5703 5698 5694 5690 5686 5683 5681 5679 5677 5676 5675 5674 5673 5674 5675 5676 5677 5679 5683 5687 5691 5696 5703
5797 5793 5790 5786 5782 5777 5772 5767 5762 5756 5751 5746 5740 5735 5728 5722 5716 5710 5704 5698 5693 5688 5683 5680 5676 5673 5671 5668 5667 5666 5664 5663 5662 5663 5664 5665 5666 5668 5671 5675 5679 5684 5691
5788 5784 5781 5777 5772 5767 5762 5757 5751 5746 5740 5735 5729 5724 5718 5711 5705 5699 5693 5688 5683 5678 5674 5669 5666 5664 5661 5658 5656 5655 5654 5653 5652 5652 5653 5654 5655 5657 5659 5663 5667 5672 5678
5778 5774 5770 5766 5762 5757 5752 5746 5741 5735 5730 5724 5718 5712 5706 5700 5694 5688 5682 5677 5672 5668 5663 5660 5656 5654 5651 5648 5646 5644 5643 5642 5641 5641 5642 5643 5644 5646 5648 5651 5655 5660 5666
5768 5764 5760 5755 5750 5746 5741 5736 5730 5724 5718 5712 5706 5701 5695 5689 5683 5677 5671 5666 5662 5658 5654 5650 5646 5643 5641 5638 5636 5634 5632 5631 5630 5630 5631 5632 5633 5635 5637 5640 5644 5648 5654
5758 5753 5749 5744 5739 5734 5729 5724 5718 5712 5706 5700 5695 5689 5683 5677 5672 5666 5661 5656 5651 5647 5644 5640 5637 5633 5630 5628 5625 5623 5621 5620 5620 5620 5620 5621 5621 5623 5626 5629 5632 5636 5642
5747 5742 5737 5732 5727 5722 5717 5712 5706 5700 5694 5688 5682 5676 5670 5665 5659 5654 5650 5645 5641 5638 5634 5630 5627 5623 5620 5618 5615 5613 5611 5610 5609 5609 5609 5610 5610 5612 5615 5618 5621 5625 5631
5735 5730 5725 5720 5715 5710 5705 5700 5694 5688 5682 5676 5670 5663 5658 5653 5647 5643 5638 5634 5631 5627 5624 5621 5617 5614 5611 5608 5606 5604 5602 5601 5599 5599 5599 5599 5600 5602 5604 5607 5610 5614 5620
5722 5717 5711 5706 5701 5696 5691 5686 5681 5675 5670 5664 5658 5652 5646 5641 5636 5632 5628 5624 5620 5617 5614 5611 5607 5604 5602 5599 5597 5595 5593 5591 5590 5589 5589 5589 5590 5592 5594 5596 5600 5604 5609
5707 5702 5697 5691 5686 5681 5675 5670 5665 5661 5656 5651 5646 5640 5635 5630 5626 5621 5617 5614 5610 5607 5604 5601 5598 5595 5592 5590 5588 5586 5584 5583 5581 5580 5580 5580 5581 5582 5584 5586 5590 5594 5598
5692 5687 5681 5676 5671 5666 5660 5655 5650 5645 5641 5636 5632 5628 5624 5619 5615 5611 5607 5604 5601 5598 5595 5592 5589 5586 5584 5582 5579 5577 5576 5574 5573 5572 5571 5571 5572 5573 5574 5577 5580 5584 5588
5676 5670 5665 5660 5654 5649 5644 5639 5634 5630 5625 5621 5617 5614 5611 5608 5604 5600 5597 5594 5591 5589 5586 5583 5580 5578 5576 5573 5571 5569 5567 5566 5565 5564 5563 5563 5563 5564 5566 5568 5570 5574 5578
5658 5653 5647 5642 5637 5631 5626 5622 5618 5614 5610 5607 5604 5601 5598 5595 5593 5590 5588 5585 5582 5580 5577 5574 5572 5569 5567 5565 5563 5561 5559 5558 5557 5556 5556 5555 5555 5556 5557 5559 5561 5564 5568
5639 5634 5628 5622 5617 5613 5608 5604 5601 5598 5595 5593 5591 5589 5586 5584 5582 5580 5578 5575 5573 5571 5569 5566 5563 5561 5559 5557 5555 5553 5551 5550 5549 5548 5548 5548 5548 5548 5549 5551 5552 5555 5560
5617 5612 5607 5602 5597 5593 5590 5587 5585 5583 5581 5579 5578 5576 5575 5573 5572 5570 5568 5567 5564 5562 5560 5558 5555 5553 5551 5548 5546 5544 5543 5542 5542 5541 5541 5541 5541 5541 5542 5543 5545 5548 5552
5596 5591 5586 5581 5577 5574 5572 5570 5569 5568 5567 5567 5566 5565 5564 5563 5562 5561 5559 5558 5556 5554 5552 5550 5547 5545 5543 5540 5538 5536 5535 5534 5534 5533 5533 5534 5534 5535 5535 5537 5539 5541 5544
5576 5571 5567 5563 5559 5557 5555 5555 5554 5554 5554 5555 5554 5554 5554 5554 5553 5552 5551 5549 5548 5546 5544 5542 5539 5537 5535 5532 5530 5528 5527 5527 5526 5526 5526 5527 5527 5528 5529 5531 5533 5535 5538
5558 5553 5549 5546 5543 5541 5541 5541 5541 5542 5543 5543 5544 5544 5545 5545 5545 5544 5543 5541 5540 5538 5537 5534 5532 5529 5526 5524 5522 5521 5520 5519 5519 5519 5519 5520 5520 5521 5523 5525 5527 5530 5533
5543 5538 5534 5531 5529 5528 5528 5529 5530 5531 5532 5534 5535 5536 5536 5537 5537 5536 5535 5534 5533 5531 5529 5527 5524 5522 5519 5517 5515 5513 5513 5512 5512 5512 5512 5513 5514 5516 5517 5519 5522 5524 5528
Wind_Speed
18 19 19 20 20 20 21 21 22 23 24 26 27 29 30 31 32 33 34 35 36 37 37 38 38 39 39 40 40 40 41 41 41 40 42 43 43 43 44 44 44 44 44
19 20 21 21 22 22 22 22 23 24 26 27 29 31 32 33 34 35 36 37 38 38 39 39 39 40 39 40 40 40 41 41 41 41 42 43 44 45 45 45 46 45 45
20 21 22 23 23 24 24 25 26 27 29 30 32 33 34 35 36 37 38 39 39 39 40 40 40 39 39 39 39 40 40 41 41 41 41 43 44 45 45 45 46 46 45
21 23 24 25 25 26 27 28 29 30 32 33 34 35 36 37 38 39 40 41 41 40 40 39 39 38 37 37 38 38 39 40 40 40 41 41 43 44 45 45 45 46 46
24 25 26 27 28 28 29 30 32 33 34 35 36 37 38 40 40 41 42 42 41 40 39 38 37 36 36 36 36 36 37 38 38 39 39 40 41 42 44 45 45 45 45
26 27 28 29 30 31 32 33 34 36 37 38 38 39 41 42 42 42 42 42 41 39 38 37 36 35 35 34 34 35 35 36 37 38 38 38 39 40 42 43 44 44 43
27 29 29 30 31 33 34 35 37 38 39 40 41 42 43 44 43 43 43 42 40 39 37 36 35 34 34 33 33 34 34 35 35 36 36 36 37 39 40 42 43 44 43
29 30 31 32 33 35 36 38 39 40 41 42 43 45 45 45 45 44 43 42 40 38 37 36 35 34 34 33 32 32 32 33 34 34 34 35 36 37 39 41 42 43 44
32 33 34 35 36 38 39 41 42 44 43 43 45 47 47 47 46 45 44 41 39 38 37 36 34 33 33 33 32 31 31 32 33 33 33 34 35 36 38 40 42 43 43
35 36 37 39 40 42 43 43 45 45 45 45 47 49 48 48 47 46 44 41 39 37 36 35 34 32 32 32 32 32 32 32 33 33 33 34 34 36 37 38 40 43 43
39 40 41 42 44 45 46 46 47 47 47 47 48 49 49 49 48 46 44 41 39 36 35 34 33 33 32 33 33 33 33 33 32 33 33 33 34 34 36 38 39 41 44
43 44 46 47 48 49 48 48 48 48 49 50 50 50 49 48 46 44 43 40 38 36 34 33 33 33 33 33 33 33 33 32 32 32 32 33 33 34 35 36 39 41 43
46 47 48 49 50 50 50 50 50 50 52 52 53 52 50 49 47 44 41 39 38 36 34 33 33 33 33 32 32 32 31 31 31 31 31 32 32 33 34 34 36 40 43
48 49 50 51 51 52 52 53 53 53 54 54 54 54 51 49 47 44 41 38 37 35 34 33 33 33 32 32 31 30 30 30 30 31 31 31 31 32 33 33 34 37 40
50 51 52 53 53 54 54 55 55 55 55 55 54 53 51 49 47 44 41 39 37 35 33 32 32 32 31 30 29 28 28 28 28 28 28 28 29 30 31 33 34 35 38
52 53 54 55 55 56 57 56 56 57 56 55 53 52 50 47 45 43 41 38 36 35 33 32 31 31 30 29 28 27 27 27 27 26 26 27 27 28 29 31 33 34 36
53 55 56 56 57 58 59 59 59 59 57 54 51 50 47 44 42 41 39 36 35 34 32 31 30 29 28 27 27 27 26 26 26 26 25 26 27 28 29 30 32 33 35
56 57 59 59 60 60 61 61 60 58 56 53 51 48 44 42 40 39 37 35 34 33 31 30 29 28 27 26 26 26 25 25 25 24 24 24 25 26 27 29 30 32 34
59 61 61 62 62 62 62 61 59 56 53 50 48 45 42 40 38 37 36 34 33 31 30 28 28 27 26 26 25 25 25 24 24 23 23 23 23 24 25 27 29 31 33
62 63 64 64 64 63 61 59 56 53 50 48 45 42 39 37 35 34 33 32 30 29 28 28 27 26 26 25 25 24 23 23 23 23 23 23 23 24 24 25 26 29 31
65 65 65 64 63 61 58 56 53 50 47 43 40 38 36 34 33 32 31 29 28 28 28 27 27 26 26 25 25 24 23 23 22 22 22 22 21 22 23 24 25 27 30
66 65 64 62 60 57 54 51 48 45 42 39 36 34 33 31 30 30 29 28 28 27 27 27 26 26 25 25 25 24 24 23 22 22 21 21 21 21 22 22 23 26 28
63 62 60 57 55 51 48 44 42 39 37 35 33 32 31 29 28 27 27 27 26 26 26 26 26 25 25 25 25 24 23 23 22 22 21 21 21 21 21 22 22 24 27
58 55 53 51 48 44 41 38 36 34 32 32 30 29 28 27 26 25 25 25 25 25 25 25 25 25 25 25 24 23 23 22 21 21 21 21 20 21 21 21 22 23 25
51 49 47 44 41 38 35 32 30 29 29 28 27 26 25 24 24 23 23 23 23 23 23 24 24 24 24 23 23 22 22 21 21 21 20 20 20 20 20 21 21 22 23
46 43 41 39 35 32 30 28 28 26 26 25 24 23 22 22 22 21 21 21 21 22 22 23 23 22 22 22 21 21 21 20 21 21 21 20 20 19 19 20 21 22 24
Wind_Direction
324 323 322 320 320 320 319 318 318 318 318 319 319 319 317 315 313 311 309 307 304 301 298 295 292 289 286 282 279 276 273 271 268 265 263 261 258 254 251 249 247 245 243
319 320 320 319 318 318 317 316 315 315 316 318 318 319 318 317 315 313 311 308 306 303 299 296 292 289 285 282 279 276 273 271 268 265 263 261 258 255 251 249 247 245 243
314 315 317 317 316 316 315 315 315 315 316 317 317 318 318 318 317 315 313 310 307 304 300 297 293 289 285 282 279 276 273 271 268 265 262 260 258 255 251 249 246 244 243
313 315 315 316 316 316 315 315 315 315 315 316 317 318 319 319 319 317 314 312 309 305 301 298 294 289 285 282 279 276 273 271 268 265 262 260 257 254 251 248 246 243 241
312 314 314 315 315 316 316 316 315 315 315 315 316 318 318 319 319 318 316 313 310 306 302 298 294 290 286 283 280 277 274 272 269 266 263 260 257 253 250 246 245 242 240
311 312 313 313 314 314 315 316 315 315 314 314 315 317 318 319 319 318 316 314 310 307 303 299 295 291 288 285 281 278 275 272 269 266 264 260 257 253 249 246 244 241 238
309 310 311 311 311 313 314 315 316 316 315 315 316 317 317 319 320 319 316 314 311 307 303 299 296 292 289 286 282 280 277 273 270 267 264 261 257 253 249 245 243 240 236
306 307 308 310 311 313 313 315 316 316 316 316 316 317 317 317 318 317 316 314 310 306 302 299 296 293 290 287 285 282 278 274 271 268 264 261 258 255 250 245 242 239 235
304 305 307 309 310 312 313 315 316 316 316 316 317 317 317 316 316 316 315 313 309 306 302 299 297 293 291 288 286 283 279 276 273 269 265 262 259 256 251 246 242 239 235
304 306 307 309 310 310 312 313 315 316 315 316 319 318 317 316 315 315 314 312 308 305 302 299 297 294 291 289 286 283 280 277 274 270 266 263 261 257 252 247 243 239 235
303 305 307 308 309 309 311 313 314 315 315 315 318 319 318 316 315 313 312 310 307 304 301 298 296 295 292 289 287 285 281 278 274 271 268 265 261 257 253 247 244 240 236
302 304 306 307 308 309 310 311 312 314 314 314 316 317 315 314 313 311 310 308 306 304 301 299 297 295 293 290 288 285 282 279 275 271 269 267 261 257 253 248 244 239 236
300 302 303 304 306 307 309 311 312 313 313 313 314 314 313 313 312 311 309 307 305 303 301 299 298 296 294 292 289 285 283 280 276 273 271 268 262 256 252 249 245 240 236
299 299 300 303 305 305 306 309 311 311 312 312 312 312 312 312 312 310 308 306 304 303 301 299 297 296 295 292 289 285 284 281 278 274 271 267 262 256 251 248 245 240 235
297 299 300 302 303 304 305 306 307 308 309 309 309 309 309 309 308 307 306 304 303 302 301 299 298 296 295 293 289 285 283 281 279 274 271 267 261 256 251 247 244 241 235
297 298 300 301 301 303 303 304 305 306 306 306 306 306 306 305 304 304 303 302 302 302 300 298 298 296 295 293 290 287 284 282 278 274 271 267 261 256 252 247 243 240 235
297 298 299 300 300 301 302 303 304 304 304 304 303 303 302 301 300 300 299 299 300 300 299 298 298 297 294 292 290 288 285 283 278 274 272 268 262 256 251 246 242 239 235
297 297 297 298 298 298 299 300 301 301 301 301 301 300 299 297 297 297 298 298 298 298 297 297 297 296 293 291 290 288 286 282 278 274 272 269 263 257 252 246 242 238 235
296 296 296 296 296 297 297 298 298 298 297 297 298 297 296 294 293 295 295 296 297 297 296 295 296 294 293 291 290 288 284 281 276 273 272 270 265 258 252 247 244 239 234
295 295 295 295 295 295 295 294 294 294 293 294 294 293 293 292 292 292 292 293 294 294 294 295 295 294 293 291 289 287 283 279 275 273 271 269 265 260 254 249 245 238 232
295 294 294 294 293 293 292 291 291 291 291 291 290 290 290 290 290 290 291 292 292 293 294 294 294 294 293 290 288 285 281 277 274 273 270 266 264 259 254 250 245 237 230
295 294 293 293 292 291 290 289 288 287 287 286 285 286 286 286 288 288 288 289 290 291 292 292 293 292 291 289 287 284 278 275 273 272 269 265 262 257 253 249 244 236 229
296 295 294 293 291 290 288 286 284 283 281 281 280 280 280 282 285 285 285 286 287 288 289 292 292 291 290 287 286 283 278 275 271 268 267 266 262 257 252 247 242 235 228
297 296 295 293 291 288 285 282 280 277 274 274 275 276 278 279 282 285 285 284 285 287 290 292 293 292 290 287 284 281 276 273 269 267 265 263 259 255 249 244 238 233 227
298 297 296 293 289 285 280 277 276 271 267 267 268 271 275 276 279 282 282 283 284 287 290 293 294 293 290 287 284 278 273 269 267 267 264 260 255 250 246 241 234 228 226
300 298 296 293 287 280 273 269 268 264 262 261 263 267 271 273 276 278 280 282 283 287 292 295 296 295 292 288 283 277 272 269 268 266 261 256 251 246 242 237 231 226 223